Location: LDNL
(36.4545°S, 141.6685°E)
Time: 02:09:56
(UTC+10:00)

Courier 1B Rocket - Visible Passes

Search period start: 27 May 2024 00:00
Search period end: 06 June 2024 00:00
Orbit: 920 x 1201 km, 28.2° (Epoch: 25 May)

Date Brightness Start Highest point End Pass type
(mag) Time Alt. Az. Time Alt. Az. Time Alt. Az.
27 May 7.6 03:20:39 16° ENE 03:20:39 16° ENE 03:22:12 10° ENE visible
27 May 6.0 05:07:00 39° NNW 05:08:11 42° N 05:15:28 10° ENE visible
27 May 6.9 06:55:15 10° WNW 07:01:18 25° NNW 07:07:20 10° NNE visible
28 May 6.6 04:09:40 33° NE 04:09:40 33° NE 04:14:17 10° ENE visible
28 May 6.5 05:56:02 19° WNW 06:00:09 31° NNW 06:06:48 10° NE visible
29 May 7.8 03:12:21 13° ENE 03:12:21 13° ENE 03:12:59 10° ENE visible
29 May 6.2 04:58:42 36° NNW 04:58:57 36° NNW 05:05:57 10° NE visible
29 May 7.1 06:46:56 10° WNW 06:51:56 18° NNW 06:56:57 10° NNE visible
30 May 6.9 04:01:24 26° NE 04:01:24 26° NE 04:04:53 10° ENE visible
30 May 6.7 05:47:45 19° NW 05:50:50 24° NNW 05:56:49 10° NNE visible
31 May 6.5 04:50:28 29° N 04:50:28 29° N 04:56:13 10° NE visible
31 May 7.3 06:39:34 10° NW 06:42:33 13° NNW 06:45:34 10° N visible
01 Jun 7.3 03:53:11 19° NE 03:53:11 19° NE 03:55:21 10° NE visible
01 Jun 6.9 05:39:33 16° NW 05:41:29 18° NNW 05:46:20 10° NNE visible
02 Jun 6.9 04:42:17 21° N 04:42:17 21° N 04:46:10 10° NNE visible
03 Jun 7.7 03:45:01 12° NE 03:45:01 12° NE 03:45:34 10° NE visible
03 Jun 7.2 05:31:23 12° NW 05:32:08 12° NNW 05:34:40 10° N visible
04 Jun 7.4 04:34:09 13° N 04:34:09 13° N 04:35:34 10° N visible
